This is the latest recevied weather packets stored in our database for station/object XQ6AK-15. If no packets are shown the sender has not sent any weather packets the latest 1 day(s).
| Time | Temp. | Humidity | Pressure | Rain* | Wind** | Luminosity | Snow |
|---|---|---|---|---|---|---|---|
| 1777965910 | 10.56° C | 99% | 1009.2 hPa | 4.83 mm | 0 m/s | 0 W/m² | - |
| 1777965606 | 10.56° C | 99% | 1009.2 hPa | 4.83 mm | 0 m/s | 0 W/m² | - |
| 1777965302 | 10.56° C | 99% | 1009.2 hPa | 4.83 mm | 0 m/s | 0 W/m² | - |
| 1777965000 | 10.56° C | 99% | 1009.5 hPa | 1.78 mm | 0 m/s | 0 W/m² | - |
| 1777964697 | 10.56° C | 99% | 1009.7 hPa | 1.27 mm | 0 m/s | 0 W/m² | - |
| 1777964392 | 10.56° C | 99% | 1009.6 hPa | 1.78 mm | 0 m/s | 0 W/m² | - |
| 1777964089 | 10.56° C | 99% | 1009.5 hPa | 1.78 mm | 0.45 m/s, 273° | 0 W/m² | - |
| 1777963786 | 10.56° C | 99% | 1009.7 hPa | 1.27 mm | 0.45 m/s, 328° | 0 W/m² | - |
| 1777963482 | 10.56° C | 99% | 1009.7 hPa | 1.27 mm | 0 m/s | 0 W/m² | - |
| 1777963181 | 10.56° C | 99% | 1009.4 hPa | 0 mm | 0 m/s | 0 W/m² | - |
| 1777962877 | 10.56° C | 99% | 1009.6 hPa | 1.78 mm | 0 m/s | 0 W/m² | - |
| 1777962574 | 10.56° C | 99% | 1009.7 hPa | 3.05 mm | 0 m/s | 0 W/m² | - |
| 1777962271 | 10.56° C | 99% | 1009.7 hPa | 1.27 mm | 0 m/s | 0 W/m² | - |
| 1777961968 | 10.56° C | 99% | 1009.6 hPa | 1.78 mm | 0 m/s | 0 W/m² | - |
| 1777961666 | 10.56° C | 99% | 1009.7 hPa | 3.05 mm | 0 m/s | 0 W/m² | - |
| 1777961363 | 10.56° C | 99% | 1009.7 hPa | 3.56 mm | 0 m/s | 0 W/m² | - |
| 1777961060 | 10.56° C | 99% | 1009.7 hPa | 3.05 mm | 0 m/s | 0 W/m² | - |
| 1777960756 | 10.56° C | 99% | 1009.8 hPa | 3.05 mm | 0 m/s | 0 W/m² | - |
| 1777960452 | 10.56° C | 99% | 1009.7 hPa | 1.78 mm | 0 m/s | 0 W/m² | - |
| 1777960149 | 10.56° C | 99% | 1009.6 hPa | 1.27 mm | 0.45 m/s, 34° | 0 W/m² | - |
| 1777959847 | 10.56° C | 99% | 1009.6 hPa | 1.27 mm | 0 m/s | 0 W/m² | - |
| 1777959545 | 10.56° C | 99% | 1009.6 hPa | 0 mm | 0 m/s | 0 W/m² | - |
| 1777959242 | 10.56° C | 99% | 1009.7 hPa | 0 mm | 0 m/s | 0 W/m² | - |
| 1777958938 | 10.56° C | 99% | 1009.5 hPa | 1.78 mm | 0 m/s | 0 W/m² | - |
| 1777958635 | 10.56° C | 99% | 1009.7 hPa | 1.78 mm | 0 m/s | 0 W/m² | - |
* Rain latest hour (hover to see other rain measurements)
** Current wind speed in m/s (hover to see current wind gust speed)